When you browse on this site, cookies collect data to enhance your experience and personalize the content and advertising you see.
Visit our Privacy Policy to learn more. By continuing to use the site, you agree to this use of cookies and data.
  • în România
  • Lista ţărilor
  • Pe 7 zile
  • Temperatura apei
  • Hartă satelitară
  • Meteo pe hartă
  • Widget-uri
  • user-avatar
    Intrare

    Meteo pe oră la Niezwojowice

    Astăzi, 22 Februarie, Vineri

    Timp Temperatura Precipitaţii Vânt Presiune Umiditate
    00:00 +5°C° 0.4 mm 5 m/s 742 mmHg 87%
    01:00 +4°C° 0 mm 4 m/s 741 mmHg 87%
    02:00 +4°C° 0.6 mm 4 m/s 742 mmHg 88%
    03:00 +3°C° 0.6 mm 5 m/s 742 mmHg 89%
    04:00 +3°C° 0.6 mm 5 m/s 742 mmHg 90%
    05:00 +2°C° 0.5 mm 6 m/s 742 mmHg 87%
    06:00 -1°C° 0.5 mm 7 m/s 743 mmHg 84%
    07:00 -3°C° 0 mm 7 m/s 745 mmHg 79%
    08:00 -4°C° 0 mm 7 m/s 746 mmHg 73%
    09:00 -4°C° 0 mm 7 m/s 747 mmHg 67%
    10:00 -4°C° 0 mm 7 m/s 748 mmHg 61%
    11:00 -4°C° 0 mm 7 m/s 749 mmHg 55%
    12:00 -4°C° 0 mm 7 m/s 750 mmHg 50%
    13:00 -4°C° 0 mm 6 m/s 752 mmHg 44%
    14:00 -5°C° 0 mm 6 m/s 752 mmHg 44%
    15:00 -5°C° 0 mm 6 m/s 752 mmHg 44%
    16:00 -5°C° 0 mm 6 m/s 753 mmHg 44%
    17:00 -6°C° 0 mm 6 m/s 753 mmHg 44%
    18:00 -6°C° 0 mm 6 m/s 754 mmHg 45%
    19:00 -8°C° 0 mm 6 m/s 755 mmHg 46%
    20:00 -7°C° 0 mm 5 m/s 755 mmHg 43%
    21:00 -7°C° 0 mm 5 m/s 756 mmHg 41%
    22:00 -7°C° 0 mm 5 m/s 756 mmHg 39%
    23:00 -7°C° 0 mm 5 m/s 757 mmHg 39%

    Mâine, 23 Februarie, Sâmbătă

    Timp Temperatura Precipitaţii Vânt Presiune Umiditate
    00:00 -7°C° 0 mm 5 m/s 757 mmHg 40%
    01:00 -7°C° 0 mm 4 m/s 757 mmHg 40%
    02:00 -7°C° 0 mm 4 m/s 757 mmHg 42%
    03:00 -7°C° 0 mm 4 m/s 758 mmHg 44%
    04:00 -6°C° 0 mm 3 m/s 758 mmHg 45%
    05:00 -6°C° 0 mm 3 m/s 758 mmHg 47%
    06:00 -7°C° 0 mm 3 m/s 758 mmHg 49%
    07:00 -7°C° 0 mm 3 m/s 759 mmHg 51%
    08:00 -6°C° 0 mm 3 m/s 759 mmHg 49%
    09:00 -5°C° 0 mm 3 m/s 759 mmHg 47%
    10:00 -5°C° 0 mm 3 m/s 759 mmHg 45%
    11:00 -4°C° 0 mm 3 m/s 759 mmHg 42%
    12:00 -4°C° 0 mm 3 m/s 759 mmHg 39%
    13:00 -2°C° 0 mm 2 m/s 759 mmHg 36%
    14:00 -2°C° 0 mm 2 m/s 759 mmHg 36%
    15:00 -2°C° 0 mm 2 m/s 758 mmHg 36%
    16:00 -2°C° 0 mm 2 m/s 758 mmHg 36%
    17:00 -1°C° 0 mm 1 m/s 758 mmHg 40%
    18:00 -1°C° 0 mm 1 m/s 758 mmHg 43%
    19:00 -2°C° 0 mm 1 m/s 758 mmHg 46%
    20:00 -2°C° 0 mm 1 m/s 758 mmHg 47%
    21:00 -2°C° 0 mm 1 m/s 758 mmHg 47%
    22:00 -2°C° 0 mm 1 m/s 758 mmHg 48%
    23:00 -2°C° 0 mm 1 m/s 758 mmHg 48%

    Poimâine, 24 Februarie, Duminică

    Timp Temperatura Precipitaţii Vânt Presiune Umiditate
    00:00 -2°C° 0 mm 1 m/s 758 mmHg 48%
    01:00 -2°C° 0 mm 1 m/s 758 mmHg 49%
    02:00 -2°C° 0 mm 1 m/s 757 mmHg 48%
    03:00 -2°C° 0 mm 1 m/s 757 mmHg 47%
    04:00 -2°C° 0 mm 1 m/s 756 mmHg 46%
    05:00 -2°C° 0 mm 1 m/s 756 mmHg 44%
    06:00 -1°C° 0 mm 1 m/s 756 mmHg 43%
    07:00 -1°C° 0 mm 1 m/s 756 mmHg 41%
    08:00 -2°C° 0 mm 2 m/s 756 mmHg 38%
    09:00 -1°C° 0 mm 2 m/s 756 mmHg 34%
    10:00 +1°C° 0 mm 2 m/s 756 mmHg 30%
    11:00 +1°C° 0 mm 3 m/s 755 mmHg 28%
    12:00 +2°C° 0 mm 3 m/s 755 mmHg 27%
    13:00 +3°C° 0 mm 3 m/s 755 mmHg 25%
    14:00 +3°C° 0 mm 3 m/s 754 mmHg 29%
    15:00 +2°C° 0 mm 3 m/s 754 mmHg 33%
    16:00 +2°C° 0 mm 3 m/s 754 mmHg 37%
    17:00 +1°C° 0 mm 3 m/s 754 mmHg 40%
    18:00 0°C° 0 mm 3 m/s 754 mmHg 44%
    19:00 -1°C° 0 mm 3 m/s 754 mmHg 47%
    20:00 -1°C° 0 mm 3 m/s 754 mmHg 49%
    21:00 -1°C° 0 mm 3 m/s 754 mmHg 50%
    22:00 -1°C° 0 mm 3 m/s 755 mmHg 51%
    23:00 -1°C° 0 mm 3 m/s 755 mmHg 53%

    25 Februarie, Luni

    Timp Temperatura Precipitaţii Vânt Presiune Umiditate
    00:00 -1°C° 0 mm 3 m/s 755 mmHg 55%
    01:00 -1°C° 0 mm 3 m/s 755 mmHg 57%
    02:00 -1°C° 0 mm 3 m/s 754 mmHg 59%
    03:00 -2°C° 0 mm 4 m/s 754 mmHg 61%
    04:00 -2°C° 0 mm 4 m/s 754 mmHg 63%
    05:00 -2°C° 0 mm 4 m/s 754 mmHg 66%
    06:00 -2°C° 0 mm 4 m/s 754 mmHg 68%
    07:00 -3°C° 0 mm 4 m/s 754 mmHg 71%
    08:00 -1°C° 0 mm 4 m/s 754 mmHg 69%
    09:00 0°C° 0 mm 4 m/s 754 mmHg 68%
    10:00 +1°C° 0 mm 4 m/s 754 mmHg 67%
    11:00 +3°C° 0 mm 4 m/s 754 mmHg 67%
    12:00 +4°C° 0 mm 4 m/s 754 mmHg 68%
    13:00 +5°C° 0 mm 4 m/s 754 mmHg 68%
    14:00 +5°C° 0 mm 4 m/s 754 mmHg 71%
    15:00 +5°C° 0 mm 3 m/s 754 mmHg 73%
    16:00 +5°C° 0 mm 3 m/s 753 mmHg 76%
    17:00 +4°C° 0 mm 3 m/s 753 mmHg 81%
    18:00 +3°C° 0 mm 3 m/s 753 mmHg 86%
    19:00 +1°C° 0 mm 3 m/s 753 mmHg 91%
    20:00 +1°C° 0 mm 3 m/s 753 mmHg 91%
    21:00 +1°C° 0 mm 3 m/s 753 mmHg 92%
    22:00 +1°C° 0 mm 3 m/s 753 mmHg 93%
    23:00 0°C° 0 mm 4 m/s 753 mmHg 93%

    26 Februarie, Marţi

    Timp Temperatura Precipitaţii Vânt Presiune Umiditate
    00:00 -1°C° 0 mm 4 m/s 753 mmHg 93%
    01:00 -1°C° 0 mm 4 m/s 752 mmHg 93%
    02:00 -1°C° 0 mm 5 m/s 752 mmHg 93%
    03:00 0°C° 0 mm 5 m/s 751 mmHg 93%
    04:00 0°C° 0 mm 5 m/s 751 mmHg 93%
    05:00 -1°C° 0 mm 5 m/s 751 mmHg 93%
    06:00 -1°C° 0 mm 5 m/s 750 mmHg 92%
    07:00 -1°C° 0 mm 5 m/s 750 mmHg 91%
    08:00 +1°C° 0 mm 6 m/s 750 mmHg 82%
    09:00 +2°C° 0 mm 6 m/s 750 mmHg 74%
    10:00 +3°C° 0 mm 6 m/s 750 mmHg 65%
    11:00 +4°C° 0 mm 7 m/s 749 mmHg 60%
    12:00 +5°C° 0 mm 7 m/s 749 mmHg 55%
    13:00 +6°C° 0 mm 7 m/s 748 mmHg 50%
    14:00 +6°C° 0 mm 7 m/s 748 mmHg 52%
    15:00 +6°C° 0 mm 7 m/s 748 mmHg 53%
    16:00 +7°C° 0 mm 6 m/s 748 mmHg 55%
    17:00 +5°C° 0 mm 6 m/s 748 mmHg 59%
    18:00 +6°C° 0 mm 5 m/s 748 mmHg 64%
    19:00 +5°C° 0 mm 5 m/s 749 mmHg 69%
    20:00 +4°C° 0 mm 4 m/s 749 mmHg 74%
    21:00 +4°C° 0 mm 4 m/s 749 mmHg 78%
    22:00 +3°C° 0 mm 4 m/s 749 mmHg 83%
    23:00 +1°C° 0 mm 4 m/s 749 mmHg 86%

    27 Februarie, Miercuri

    Timp Temperatura Precipitaţii Vânt Presiune Umiditate
    00:00 +2°C° 0 mm 3 m/s 749 mmHg 89%
    01:00 +1°C° 0 mm 3 m/s 749 mmHg 92%
    02:00 +1°C° 0 mm 3 m/s 749 mmHg 92%
    03:00 0°C° 0 mm 3 m/s 749 mmHg 92%
    04:00 0°C° 0 mm 3 m/s 749 mmHg 93%
    05:00 0°C° 0 mm 3 m/s 749 mmHg 92%
    06:00 0°C° 0 mm 3 m/s 749 mmHg 91%
    07:00 -1°C° 0 mm 3 m/s 749 mmHg 91%
    08:00 +1°C° 0 mm 3 m/s 749 mmHg 84%
    09:00 +3°C° 0 mm 3 m/s 749 mmHg 77%
    10:00 +4°C° 0 mm 3 m/s 749 mmHg 70%
    11:00 +6°C° 0 mm 4 m/s 748 mmHg 66%
    12:00 +7°C° 0 mm 4 m/s 747 mmHg 63%
    13:00 +8°C° 0 mm 4 m/s 747 mmHg 60%
    14:00 +8°C° 0 mm 4 m/s 746 mmHg 60%
    15:00 +8°C° 0 mm 5 m/s 745 mmHg 61%
    16:00 +8°C° 0 mm 5 m/s 745 mmHg 61%
    17:00 +8°C° 0 mm 5 m/s 744 mmHg 64%
    18:00 +7°C° 0 mm 5 m/s 744 mmHg 67%
    19:00 +6°C° 0 mm 5 m/s 744 mmHg 70%
    20:00 +5°C° 0 mm 5 m/s 743 mmHg 70%
    21:00 +5°C° 0 mm 5 m/s 743 mmHg 71%
    22:00 +5°C° 0 mm 5 m/s 742 mmHg 71%
    23:00 +5°C° 0 mm 5 m/s 742 mmHg 72%
    Arată mai mult